Time,TemperatureF,DewpointF,PressureIn,WindDirection,WindDirectionDegrees,WindSpeedMPH,WindSpeedGustMPH,Humidity,HourlyPrecipIn,Conditions,Clouds,dailyrainin,SoftwareType,DateUTC
2013-03-07 00:03:00,19.2,15.7,30.36,ENE,78,8.0,8.0,86,0.00,,,0.00,Wunderground v.1.15,2013-03-07 06:03:00,
2013-03-07 00:08:00,19.2,15.7,30.36,ENE,77,7.0,8.0,86,0.00,,,0.00,Wunderground v.1.15,2013-03-07 06:08:00,
2013-03-07 00:14:00,19.2,15.7,30.35,ENE,77,5.0,5.0,86,0.00,,,0.00,Wunderground v.1.15,2013-03-07 06:14:00,
2013-03-07 00:19:00,19.2,16.0,30.35,ENE,78,5.0,5.0,87,0.00,,,0.00,Wunderground v.1.15,2013-03-07 06:19:00,
2013-03-07 00:24:00,19.2,16.0,30.35,ENE,78,4.0,8.0,87,0.00,,,0.00,Wunderground v.1.15,2013-03-07 06:24:00,
2013-03-07 00:29:00,19.3,16.1,30.35,ENE,77,7.0,8.0,87,0.00,,,0.00,Wunderground v.1.15,2013-03-07 06:29:00,
2013-03-07 00:36:00,19.1,15.9,30.34,ENE,78,9.0,9.0,87,0.00,,,0.00,Wunderground v.1.15,2013-03-07 06:36:00,
2013-03-07 00:42:00,18.9,15.7,30.34,ENE,77,7.0,7.0,87,0.00,,,0.00,Wunderground v.1.15,2013-03-07 06:42:00,
2013-03-07 00:47:00,18.8,15.6,30.34,ENE,78,10.0,10.0,87,0.00,,,0.00,Wunderground v.1.15,2013-03-07 06:47:00,
2013-03-07 00:52:00,18.8,15.6,30.33,ENE,76,9.0,9.0,87,0.00,,,0.00,Wunderground v.1.15,2013-03-07 06:52:00,
2013-03-07 00:58:00,18.6,15.4,30.33,East,86,10.0,12.0,87,0.00,,,0.00,Wunderground v.1.15,2013-03-07 06:58:00,
2013-03-07 01:04:00,18.4,15.2,30.33,East,91,9.0,9.0,87,0.00,,,0.00,Wunderground v.1.15,2013-03-07 07:04:00,
2013-03-07 01:09:00,18.4,15.2,30.34,ESE,102,10.0,10.0,87,0.00,,,0.00,Wunderground v.1.15,2013-03-07 07:09:00,
2013-03-07 01:16:00,18.4,15.2,30.34,ESE,111,10.0,11.0,87,0.00,,,0.00,Wunderground v.1.15,2013-03-07 07:16:00,
2013-03-07 01:22:00,18.4,15.2,30.34,ESE,111,7.0,9.0,87,0.00,,,0.00,Wunderground v.1.15,2013-03-07 07:22:00,
2013-03-07 01:28:00,18.3,15.1,30.34,ESE,114,12.0,12.0,87,0.00,,,0.00,Wunderground v.1.15,2013-03-07 07:28:00,
2013-03-07 01:34:00,18.3,15.1,30.34,ESE,118,10.0,10.0,87,0.00,,,0.00,Wunderground v.1.15,2013-03-07 07:34:00,
2013-03-07 01:41:00,18.3,15.1,30.34,ESE,118,7.0,12.0,87,0.00,,,0.00,Wunderground v.1.15,2013-03-07 07:41:00,
2013-03-07 01:47:00,18.3,15.1,30.34,ESE,118,9.0,10.0,87,0.00,,,0.00,Wunderground v.1.15,2013-03-07 07:47:00,
2013-03-07 01:52:00,18.3,15.1,30.34,ESE,119,11.0,11.0,87,0.00,,,0.00,Wunderground v.1.15,2013-03-07 07:52:00,
2013-03-07 01:57:00,18.3,15.1,30.34,ESE,121,8.0,13.0,87,0.00,,,0.00,Wunderground v.1.15,2013-03-07 07:57:00,
2013-03-07 02:02:00,18.2,15.0,30.34,ESE,122,11.0,12.0,87,0.00,,,0.00,Wunderground v.1.15,2013-03-07 08:02:00,
2013-03-07 02:07:00,18.2,15.0,30.34,ESE,123,9.0,12.0,87,0.00,,,0.00,Wunderground v.1.15,2013-03-07 08:07:00,
2013-03-07 02:12:00,18.2,15.0,30.35,ESE,122,10.0,10.0,87,0.00,,,0.00,Wunderground v.1.15,2013-03-07 08:12:00,
2013-03-07 02:17:00,18.0,14.8,30.35,ESE,123,8.0,12.0,87,0.00,,,0.00,Wunderground v.1.15,2013-03-07 08:17:00,
2013-03-07 02:22:00,18.0,14.8,30.35,ESE,123,7.0,7.0,87,0.00,,,0.00,Wunderground v.1.15,2013-03-07 08:22:00,
2013-03-07 02:27:00,18.0,14.8,30.34,ESE,123,9.0,11.0,87,0.00,,,0.00,Wunderground v.1.15,2013-03-07 08:27:00,
2013-03-07 02:32:00,17.8,14.6,30.34,ESE,123,7.0,10.0,87,0.00,,,0.00,Wunderground v.1.15,2013-03-07 08:32:00,
2013-03-07 02:37:00,17.7,14.5,30.34,ESE,122,5.0,10.0,87,0.00,,,0.00,Wunderground v.1.15,2013-03-07 08:37:00,
2013-03-07 02:42:00,17.6,14.4,30.34,ESE,123,12.0,12.0,87,0.00,,,0.00,Wunderground v.1.15,2013-03-07 08:42:00,
2013-03-07 02:47:00,17.5,14.3,30.34,ESE,122,9.0,12.0,87,0.00,,,0.00,Wunderground v.1.15,2013-03-07 08:47:00,
2013-03-07 02:52:00,17.5,14.3,30.34,ESE,123,7.0,8.0,87,0.00,,,0.00,Wunderground v.1.15,2013-03-07 08:52:00,
2013-03-07 02:57:00,17.5,14.3,30.34,ESE,122,5.0,9.0,87,0.00,,,0.00,Wunderground v.1.15,2013-03-07 08:57:00,
2013-03-07 03:03:00,17.4,14.5,30.34,ESE,123,5.0,10.0,88,0.00,,,0.00,Wunderground v.1.15,2013-03-07 09:03:00,
2013-03-07 03:08:00,17.3,14.1,30.33,ESE,122,5.0,11.0,87,0.00,,,0.00,Wunderground v.1.15,2013-03-07 09:08:00,
2013-03-07 03:13:00,17.2,14.3,30.33,ESE,123,10.0,10.0,88,0.00,,,0.00,Wunderground v.1.15,2013-03-07 09:13:00,
2013-03-07 03:18:00,17.2,14.3,30.34,ESE,123,7.0,10.0,88,0.00,,,0.00,Wunderground v.1.15,2013-03-07 09:18:00,
2013-03-07 03:23:00,17.1,14.2,30.34,ESE,122,7.0,9.0,88,0.00,,,0.00,Wunderground v.1.15,2013-03-07 09:23:00,
2013-03-07 03:28:00,17.1,14.2,30.34,ESE,123,8.0,10.0,88,0.00,,,0.00,Wunderground v.1.15,2013-03-07 09:28:00,
2013-03-07 03:33:00,16.9,14.0,30.33,ESE,123,8.0,10.0,88,0.00,,,0.00,Wunderground v.1.15,2013-03-07 09:33:00,
2013-03-07 03:38:00,16.9,14.0,30.33,ESE,123,9.0,12.0,88,0.00,,,0.00,Wunderground v.1.15,2013-03-07 09:38:00,
2013-03-07 03:43:00,16.9,14.0,30.33,ESE,123,5.0,8.0,88,0.00,,,0.00,Wunderground v.1.15,2013-03-07 09:43:00,
2013-03-07 03:48:00,17.0,14.1,30.33,ESE,123,4.0,9.0,88,0.00,,,0.00,Wunderground v.1.15,2013-03-07 09:48:00,
2013-03-07 03:53:00,16.9,14.0,30.34,ESE,122,10.0,11.0,88,0.00,,,0.00,Wunderground v.1.15,2013-03-07 09:53:00,
2013-03-07 03:58:00,16.8,13.9,30.34,ESE,123,8.0,13.0,88,0.00,,,0.00,Wunderground v.1.15,2013-03-07 09:58:00,
2013-03-07 04:03:00,16.8,13.9,30.34,ESE,122,4.0,7.0,88,0.00,,,0.00,Wunderground v.1.15,2013-03-07 10:03:00,
2013-03-07 04:08:00,16.8,13.9,30.33,ESE,123,9.0,9.0,88,0.00,,,0.00,Wunderground v.1.15,2013-03-07 10:08:00,
2013-03-07 04:13:00,16.8,13.9,30.33,ESE,122,4.0,11.0,88,0.00,,,0.00,Wunderground v.1.15,2013-03-07 10:13:00,
2013-03-07 04:18:00,16.7,13.8,30.33,ESE,123,4.0,11.0,88,0.00,,,0.00,Wunderground v.1.15,2013-03-07 10:18:00,
2013-03-07 04:23:00,16.7,13.8,30.33,ESE,122,7.0,11.0,88,0.00,,,0.00,Wunderground v.1.15,2013-03-07 10:23:00,
2013-03-07 04:29:00,16.6,13.7,30.33,ESE,123,7.0,11.0,88,0.00,,,0.00,Wunderground v.1.15,2013-03-07 10:29:00,
2013-03-07 04:34:00,16.6,13.9,30.33,ESE,123,4.0,11.0,89,0.00,,,0.00,Wunderground v.1.15,2013-03-07 10:34:00,
2013-03-07 04:39:00,16.6,13.7,30.33,ESE,122,3.0,11.0,88,0.00,,,0.00,Wunderground v.1.15,2013-03-07 10:39:00,
2013-03-07 04:44:00,16.7,14.0,30.33,ESE,123,9.0,13.0,89,0.00,,,0.00,Wunderground v.1.15,2013-03-07 10:44:00,
2013-03-07 04:49:00,16.7,14.0,30.33,ESE,123,10.0,13.0,89,0.00,,,0.00,Wunderground v.1.15,2013-03-07 10:49:00,
2013-03-07 04:54:00,16.7,14.0,30.33,ESE,123,12.0,13.0,89,0.00,,,0.00,Wunderground v.1.15,2013-03-07 10:54:00,
2013-03-07 04:59:00,16.8,14.1,30.33,ESE,123,11.0,13.0,89,0.00,,,0.00,Wunderground v.1.15,2013-03-07 10:59:00,
2013-03-07 05:04:00,16.9,14.2,30.33,ESE,123,10.0,13.0,89,0.00,,,0.00,Wunderground v.1.15,2013-03-07 11:04:00,
2013-03-07 05:09:00,17.0,14.3,30.33,ESE,123,7.0,13.0,89,0.00,,,0.00,Wunderground v.1.15,2013-03-07 11:09:00,
2013-03-07 05:14:00,17.0,14.3,30.33,ESE,123,9.0,11.0,89,0.00,,,0.00,Wunderground v.1.15,2013-03-07 11:14:00,
2013-03-07 05:19:00,16.9,14.2,30.33,ESE,123,8.0,12.0,89,0.00,,,0.00,Wunderground v.1.15,2013-03-07 11:19:00,
2013-03-07 05:24:00,16.9,14.2,30.33,ESE,122,10.0,12.0,89,0.00,,,0.00,Wunderground v.1.15,2013-03-07 11:24:00,
2013-03-07 05:29:00,16.7,14.0,30.33,ESE,122,11.0,15.0,89,0.00,,,0.00,Wunderground v.1.15,2013-03-07 11:29:00,
2013-03-07 05:34:00,16.6,13.9,30.33,ESE,123,8.0,12.0,89,0.00,,,0.00,Wunderground v.1.15,2013-03-07 11:34:00,
2013-03-07 05:39:00,16.4,13.5,30.33,ESE,123,4.0,12.0,88,0.00,,,0.00,Wunderground v.1.15,2013-03-07 11:39:00,
2013-03-07 05:44:00,16.3,13.4,30.34,ESE,123,5.0,10.0,88,0.00,,,0.00,Wunderground v.1.15,2013-03-07 11:44:00,
2013-03-07 05:49:00,16.1,13.2,30.34,ESE,123,8.0,10.0,88,0.00,,,0.00,Wunderground v.1.15,2013-03-07 11:49:00,
2013-03-07 05:55:00,15.9,13.0,30.33,ESE,123,4.0,9.0,88,0.00,,,0.00,Wunderground v.1.15,2013-03-07 11:55:00,
2013-03-07 06:00:00,15.7,12.8,30.33,ESE,123,7.0,7.0,88,0.00,,,0.00,Wunderground v.1.15,2013-03-07 12:00:00,
2013-03-07 06:06:00,15.5,12.6,30.33,ESE,123,5.0,9.0,88,0.00,,,0.00,Wunderground v.1.15,2013-03-07 12:06:00,
2013-03-07 06:12:00,15.4,12.5,30.33,ESE,123,7.0,7.0,88,0.00,,,0.00,Wunderground v.1.15,2013-03-07 12:12:00,
2013-03-07 06:17:00,15.3,12.4,30.33,ESE,123,7.0,8.0,88,0.00,,,0.00,Wunderground v.1.15,2013-03-07 12:17:00,
2013-03-07 06:22:00,15.4,12.5,30.33,ESE,123,8.0,8.0,88,0.00,,,0.00,Wunderground v.1.15,2013-03-07 12:22:00,
2013-03-07 06:27:00,15.3,12.4,30.33,ESE,123,3.0,9.0,88,0.00,,,0.00,Wunderground v.1.15,2013-03-07 12:27:00,
2013-03-07 06:32:00,15.1,12.2,30.33,ESE,123,7.0,8.0,88,0.00,,,0.00,Wunderground v.1.15,2013-03-07 12:32:00,
2013-03-07 06:37:00,15.0,12.1,30.33,ESE,122,2.0,8.0,88,0.00,,,0.00,Wunderground v.1.15,2013-03-07 12:37:00,
2013-03-07 06:42:00,15.2,12.3,30.33,ESE,123,2.0,8.0,88,0.00,,,0.00,Wunderground v.1.15,2013-03-07 12:42:00,
2013-03-07 06:47:00,15.2,12.3,30.33,ESE,123,7.0,8.0,88,0.00,,,0.00,Wunderground v.1.15,2013-03-07 12:47:00,
2013-03-07 06:52:00,15.2,12.5,30.34,ESE,123,7.0,7.0,89,0.00,,,0.00,Wunderground v.1.15,2013-03-07 12:52:00,
2013-03-07 06:57:00,15.2,12.5,30.34,ESE,122,5.0,7.0,89,0.00,,,0.00,Wunderground v.1.15,2013-03-07 12:57:00,
2013-03-07 07:02:00,15.0,12.3,30.34,ESE,123,5.0,7.0,89,0.00,,,0.00,Wunderground v.1.15,2013-03-07 13:02:00,
2013-03-07 07:07:00,14.9,12.2,30.34,ESE,123,4.0,7.0,89,0.00,,,0.00,Wunderground v.1.15,2013-03-07 13:07:00,
2013-03-07 07:12:00,14.8,12.1,30.33,ESE,123,7.0,7.0,89,0.00,,,0.00,Wunderground v.1.15,2013-03-07 13:12:00,
2013-03-07 07:17:00,14.9,12.2,30.33,ESE,123,2.0,7.0,89,0.00,,,0.00,Wunderground v.1.15,2013-03-07 13:17:00,
2013-03-07 07:22:00,15.2,12.5,30.33,ESE,123,8.0,9.0,89,0.00,,,0.00,Wunderground v.1.15,2013-03-07 13:22:00,
2013-03-07 07:27:00,15.5,12.8,30.33,ESE,122,4.0,13.0,89,0.00,,,0.00,Wunderground v.1.15,2013-03-07 13:27:00,
2013-03-07 07:32:00,15.7,13.0,30.34,ESE,123,4.0,10.0,89,0.00,,,0.00,Wunderground v.1.15,2013-03-07 13:32:00,
2013-03-07 07:37:00,15.8,13.1,30.33,ESE,122,9.0,13.0,89,0.00,,,0.00,Wunderground v.1.15,2013-03-07 13:37:00,
2013-03-07 07:43:00,15.8,13.1,30.33,ESE,122,10.0,15.0,89,0.00,,,0.00,Wunderground v.1.15,2013-03-07 13:43:00,
2013-03-07 07:48:00,15.9,13.2,30.33,ESE,123,11.0,15.0,89,0.00,,,0.00,Wunderground v.1.15,2013-03-07 13:48:00,
2013-03-07 07:53:00,15.9,13.2,30.33,ESE,122,10.0,12.0,89,0.00,,,0.00,Wunderground v.1.15,2013-03-07 13:53:00,
2013-03-07 07:58:00,16.0,13.3,30.33,SE,126,11.0,14.0,89,0.00,,,0.00,Wunderground v.1.15,2013-03-07 13:58:00,
2013-03-07 08:03:00,16.0,13.3,30.33,SE,129,6.0,10.0,89,0.00,,,0.00,Wunderground v.1.15,2013-03-07 14:03:00,
2013-03-07 08:08:00,16.2,13.5,30.34,SE,133,4.0,13.0,89,0.00,,,0.00,Wunderground v.1.15,2013-03-07 14:08:00,
2013-03-07 08:13:00,16.4,13.7,30.33,SE,133,9.0,9.0,89,0.00,,,0.00,Wunderground v.1.15,2013-03-07 14:13:00,
2013-03-07 08:18:00,16.7,14.0,30.33,SE,133,8.0,12.0,89,0.00,,,0.00,Wunderground v.1.15,2013-03-07 14:18:00,
2013-03-07 08:23:00,17.0,14.3,30.33,SE,133,8.0,10.0,89,0.00,,,0.00,Wunderground v.1.15,2013-03-07 14:23:00,
2013-03-07 08:28:00,17.5,14.8,30.32,SE,141,11.0,13.0,89,0.00,,,0.00,Wunderground v.1.15,2013-03-07 14:28:00,
2013-03-07 08:33:00,17.9,15.2,30.33,SE,141,6.0,11.0,89,0.00,,,0.00,Wunderground v.1.15,2013-03-07 14:33:00,
2013-03-07 08:38:00,18.1,15.1,30.32,SE,142,11.0,15.0,88,0.00,,,0.00,Wunderground v.1.15,2013-03-07 14:38:00,
2013-03-07 08:44:00,18.6,15.6,30.32,SE,136,6.0,12.0,88,0.00,,,0.00,Wunderground v.1.15,2013-03-07 14:44:00,
2013-03-07 08:49:00,18.7,15.7,30.31,SE,144,10.0,17.0,88,0.00,,,0.00,Wunderground v.1.15,2013-03-07 14:49:00,
2013-03-07 08:54:00,18.6,15.4,30.31,SE,146,6.0,14.0,87,0.00,,,0.00,Wunderground v.1.15,2013-03-07 14:54:00,
2013-03-07 08:59:00,19.0,15.8,30.32,SSE,159,7.0,15.0,87,0.00,,,0.00,Wunderground v.1.15,2013-03-07 14:59:00,
2013-03-07 09:04:00,19.2,16.0,30.32,SSE,158,8.0,12.0,87,0.00,,,0.00,Wunderground v.1.15,2013-03-07 15:04:00,
2013-03-07 09:09:00,19.5,16.3,30.31,SSE,155,9.0,14.0,87,0.00,,,0.00,Wunderground v.1.15,2013-03-07 15:09:00,
2013-03-07 09:14:00,19.7,16.5,30.31,SSE,154,9.0,13.0,87,0.00,,,0.00,Wunderground v.1.15,2013-03-07 15:14:00,
2013-03-07 09:19:00,20.0,16.5,30.31,SSE,154,10.0,13.0,86,0.00,,,0.00,Wunderground v.1.15,2013-03-07 15:19:00,
2013-03-07 09:24:00,20.0,16.5,30.31,SE,146,12.0,16.0,86,0.00,,,0.00,Wunderground v.1.15,2013-03-07 15:24:00,
2013-03-07 09:29:00,20.5,17.0,30.31,SE,140,11.0,16.0,86,0.00,,,0.00,Wunderground v.1.15,2013-03-07 15:29:00,
2013-03-07 09:34:00,20.7,17.2,30.30,SE,137,9.0,14.0,86,0.00,,,0.00,Wunderground v.1.15,2013-03-07 15:34:00,
2013-03-07 09:39:00,20.9,17.4,30.31,SSE,152,16.0,17.0,86,0.00,,,0.00,Wunderground v.1.15,2013-03-07 15:39:00,
2013-03-07 09:44:00,20.8,17.3,30.31,SSE,155,11.0,14.0,86,0.00,,,0.00,Wunderground v.1.15,2013-03-07 15:44:00,
2013-03-07 09:49:00,21.4,17.9,30.31,SSE,159,13.0,15.0,86,0.00,,,0.00,Wunderground v.1.15,2013-03-07 15:49:00,
2013-03-07 09:54:00,21.5,18.0,30.30,SSE,157,7.0,15.0,86,0.00,,,0.00,Wunderground v.1.15,2013-03-07 15:54:00,
2013-03-07 09:59:00,21.8,18.0,30.30,SSE,158,11.0,15.0,85,0.00,,,0.00,Wunderground v.1.15,2013-03-07 15:59:00,
2013-03-07 10:04:00,22.0,18.2,30.30,SSE,149,10.0,16.0,85,0.00,,,0.00,Wunderground v.1.15,2013-03-07 16:04:00,
2013-03-07 10:09:00,22.7,18.9,30.30,SSE,151,10.0,17.0,85,0.00,,,0.00,Wunderground v.1.15,2013-03-07 16:09:00,
2013-03-07 10:15:00,23.1,19.3,30.30,SSE,149,10.0,15.0,85,0.00,,,0.00,Wunderground v.1.15,2013-03-07 16:15:00,
2013-03-07 10:20:00,23.0,19.2,30.30,SE,146,9.0,12.0,85,0.00,,,0.00,Wunderground v.1.15,2013-03-07 16:20:00,
2013-03-07 10:25:00,23.7,19.9,30.30,SE,140,8.0,15.0,85,0.00,,,0.00,Wunderground v.1.15,2013-03-07 16:25:00,
2013-03-07 10:30:00,23.8,19.7,30.30,SSE,147,9.0,12.0,84,0.00,,,0.00,Wunderground v.1.15,2013-03-07 16:30:00,
2013-03-07 10:35:00,24.0,19.9,30.29,SE,140,13.0,15.0,84,0.00,,,0.00,Wunderground v.1.15,2013-03-07 16:35:00,
2013-03-07 10:42:00,24.0,19.6,30.29,SSE,155,16.0,16.0,83,0.00,,,0.00,Wunderground v.1.15,2013-03-07 16:42:00,
2013-03-07 10:47:00,24.6,20.5,30.30,SSE,154,12.0,16.0,84,0.00,,,0.00,Wunderground v.1.15,2013-03-07 16:47:00,
2013-03-07 10:52:00,24.7,20.3,30.30,SSE,149,9.0,12.0,83,0.00,,,0.00,Wunderground v.1.15,2013-03-07 16:52:00,
2013-03-07 10:57:00,24.7,20.3,30.30,SSE,149,10.0,14.0,83,0.00,,,0.00,Wunderground v.1.15,2013-03-07 16:57:00,
2013-03-07 11:02:00,24.9,20.8,30.30,SSE,159,8.0,10.0,84,0.00,,,0.00,Wunderground v.1.15,2013-03-07 17:02:00,
2013-03-07 11:07:00,25.5,21.3,30.30,SE,137,11.0,15.0,84,0.00,,,0.00,Wunderground v.1.15,2013-03-07 17:07:00,
2013-03-07 11:12:00,25.3,20.9,30.30,SE,143,7.0,12.0,83,0.00,,,0.00,Wunderground v.1.15,2013-03-07 17:12:00,
2013-03-07 11:17:00,25.7,21.3,30.30,SE,146,6.0,17.0,83,0.00,,,0.00,Wunderground v.1.15,2013-03-07 17:17:00,
2013-03-07 11:22:00,25.8,21.3,30.29,SE,145,14.0,14.0,83,0.00,,,0.00,Wunderground v.1.15,2013-03-07 17:22:00,
2013-03-07 11:27:00,26.1,21.9,30.29,SE,134,11.0,14.0,84,0.00,,,0.00,Wunderground v.1.15,2013-03-07 17:27:00,
2013-03-07 11:32:00,26.8,22.3,30.29,SE,134,9.0,11.0,83,0.00,,,0.00,Wunderground v.1.15,2013-03-07 17:32:00,
2013-03-07 11:37:00,27.1,22.6,30.29,SE,143,12.0,14.0,83,0.00,,,0.00,Wunderground v.1.15,2013-03-07 17:37:00,
2013-03-07 11:42:00,27.1,22.3,30.29,SE,132,11.0,12.0,82,0.00,,,0.00,Wunderground v.1.15,2013-03-07 17:42:00,
2013-03-07 11:47:00,27.5,23.0,30.29,SE,129,6.0,15.0,83,0.00,,,0.00,Wunderground v.1.15,2013-03-07 17:47:00,
2013-03-07 11:53:00,27.4,22.3,30.29,SE,128,12.0,12.0,81,0.00,,,0.00,Wunderground v.1.15,2013-03-07 17:53:00,
2013-03-07 11:58:00,27.2,22.4,30.29,SE,128,9.0,13.0,82,0.00,,,0.00,Wunderground v.1.15,2013-03-07 17:58:00,
2013-03-07 12:03:00,27.2,22.1,30.29,SE,146,8.0,15.0,81,0.00,,,0.00,Wunderground v.1.15,2013-03-07 18:03:00,
2013-03-07 12:08:00,27.6,22.5,30.29,SE,140,13.0,15.0,81,0.00,,,0.00,Wunderground v.1.15,2013-03-07 18:08:00,
2013-03-07 12:13:00,27.3,22.2,30.29,SE,132,9.0,13.0,81,0.00,,,0.00,Wunderground v.1.15,2013-03-07 18:13:00,
2013-03-07 12:18:00,27.9,23.1,30.28,SE,134,9.0,15.0,82,0.00,,,0.00,Wunderground v.1.15,2013-03-07 18:18:00,
2013-03-07 12:23:00,28.1,23.0,30.29,SE,136,10.0,13.0,81,0.00,,,0.00,Wunderground v.1.15,2013-03-07 18:23:00,
2013-03-07 12:28:00,28.0,22.9,30.28,SE,130,10.0,15.0,81,0.00,,,0.00,Wunderground v.1.15,2013-03-07 18:28:00,
2013-03-07 12:33:00,28.3,23.2,30.29,SE,133,12.0,12.0,81,0.00,,,0.00,Wunderground v.1.15,2013-03-07 18:33:00,
2013-03-07 12:38:00,28.4,23.0,30.29,SE,138,12.0,15.0,80,0.00,,,0.00,Wunderground v.1.15,2013-03-07 18:38:00,
2013-03-07 12:44:00,28.7,23.6,30.28,SE,132,11.0,11.0,81,0.00,,,0.00,Wunderground v.1.15,2013-03-07 18:44:00,
2013-03-07 12:49:00,29.0,23.9,30.28,ESE,123,12.0,12.0,81,0.00,,,0.00,Wunderground v.1.15,2013-03-07 18:49:00,
2013-03-07 12:54:00,28.8,23.7,30.27,SE,134,9.0,13.0,81,0.00,,,0.00,Wunderground v.1.15,2013-03-07 18:54:00,
2013-03-07 12:59:00,28.9,23.8,30.27,SE,128,10.0,14.0,81,0.00,,,0.00,Wunderground v.1.15,2013-03-07 18:59:00,
2013-03-07 13:04:00,29.1,23.7,30.27,SE,126,7.0,14.0,80,0.00,,,0.00,Wunderground v.1.15,2013-03-07 19:04:00,
2013-03-07 13:09:00,29.5,24.4,30.26,SE,126,14.0,16.0,81,0.00,,,0.00,Wunderground v.1.15,2013-03-07 19:09:00,
2013-03-07 13:14:00,29.4,24.3,30.26,SE,126,12.0,15.0,81,0.00,,,0.00,Wunderground v.1.15,2013-03-07 19:14:00,
2013-03-07 13:19:00,29.7,24.3,30.26,SE,132,11.0,15.0,80,0.00,,,0.00,Wunderground v.1.15,2013-03-07 19:19:00,
2013-03-07 13:24:00,29.7,24.6,30.25,SE,134,9.0,15.0,81,0.00,,,0.00,Wunderground v.1.15,2013-03-07 19:24:00,
2013-03-07 13:29:00,29.9,24.5,30.25,SE,134,9.0,15.0,80,0.00,,,0.00,Wunderground v.1.15,2013-03-07 19:29:00,
2013-03-07 13:35:00,30.0,24.6,30.25,SE,130,11.0,16.0,80,0.00,,,0.00,Wunderground v.1.15,2013-03-07 19:35:00,
2013-03-07 13:40:00,30.2,24.8,30.24,SE,129,10.0,11.0,80,0.00,,,0.00,Wunderground v.1.15,2013-03-07 19:40:00,
2013-03-07 13:45:00,30.3,24.9,30.24,ESE,117,11.0,15.0,80,0.00,,,0.00,Wunderground v.1.15,2013-03-07 19:45:00,
2013-03-07 13:50:00,30.4,25.0,30.24,ESE,123,12.0,12.0,80,0.00,,,0.00,Wunderground v.1.15,2013-03-07 19:50:00,
2013-03-07 13:55:00,30.6,24.9,30.24,SE,126,10.0,17.0,79,0.00,,,0.00,Wunderground v.1.15,2013-03-07 19:55:00,
2013-03-07 14:00:00,30.6,25.2,30.23,SE,138,11.0,12.0,80,0.00,,,0.00,Wunderground v.1.15,2013-03-07 20:00:00,
2013-03-07 14:05:00,30.6,24.9,30.23,SE,130,12.0,16.0,79,0.00,,,0.00,Wunderground v.1.15,2013-03-07 20:05:00,
2013-03-07 14:10:00,30.8,25.1,30.23,SE,133,8.0,12.0,79,0.00,,,0.00,Wunderground v.1.15,2013-03-07 20:10:00,
2013-03-07 14:15:00,30.9,25.2,30.23,ESE,122,13.0,15.0,79,0.00,,,0.00,Wunderground v.1.15,2013-03-07 20:15:00,
2013-03-07 14:20:00,30.7,25.3,30.23,SE,125,9.0,17.0,80,0.00,,,0.00,Wunderground v.1.15,2013-03-07 20:20:00,
2013-03-07 14:25:00,30.7,25.6,30.23,SE,126,12.0,18.0,81,0.00,,,0.00,Wunderground v.1.15,2013-03-07 20:25:00,
2013-03-07 14:30:00,30.6,25.2,30.22,ESE,113,11.0,13.0,80,0.00,,,0.00,Wunderground v.1.15,2013-03-07 20:30:00,
2013-03-07 14:35:00,31.0,25.6,30.23,ESE,113,12.0,17.0,80,0.00,,,0.00,Wunderground v.1.15,2013-03-07 20:35:00,
2013-03-07 14:41:00,30.7,25.3,30.23,ESE,117,12.0,13.0,80,0.00,,,0.00,Wunderground v.1.15,2013-03-07 20:41:00,
2013-03-07 14:47:00,30.5,25.1,30.22,SE,128,17.0,18.0,80,0.00,,,0.00,Wunderground v.1.15,2013-03-07 20:47:00,
2013-03-07 14:52:00,30.3,24.9,30.22,ESE,119,13.0,14.0,80,0.00,,,0.00,Wunderground v.1.15,2013-03-07 20:52:00,
2013-03-07 14:57:00,30.4,25.0,30.22,ESE,115,14.0,19.0,80,0.00,,,0.01,Wunderground v.1.15,2013-03-07 20:57:00,
2013-03-07 15:02:00,30.5,24.8,30.22,ESE,115,14.0,14.0,79,0.00,,,0.01,Wunderground v.1.15,2013-03-07 21:02:00,
2013-03-07 15:07:00,30.5,25.1,30.22,ESE,123,12.0,17.0,80,0.00,,,0.01,Wunderground v.1.15,2013-03-07 21:07:00,
2013-03-07 15:12:00,30.8,25.1,30.22,ESE,123,14.0,18.0,79,0.00,,,0.01,Wunderground v.1.15,2013-03-07 21:12:00,
2013-03-07 15:17:00,31.1,25.3,30.22,ESE,109,15.0,18.0,79,0.00,,,0.01,Wunderground v.1.15,2013-03-07 21:17:00,
2013-03-07 15:22:00,30.5,24.8,30.22,ESE,121,14.0,15.0,79,0.00,,,0.01,Wunderground v.1.15,2013-03-07 21:22:00,
2013-03-07 15:27:00,30.4,24.7,30.22,SE,133,15.0,17.0,79,0.00,,,0.01,Wunderground v.1.15,2013-03-07 21:27:00,
2013-03-07 15:33:00,30.5,24.8,30.22,ESE,122,13.0,16.0,79,0.00,,,0.01,Wunderground v.1.15,2013-03-07 21:33:00,
2013-03-07 15:37:00,30.1,24.4,30.22,SE,130,9.0,16.0,79,0.00,,,0.01,Wunderground v.1.15,2013-03-07 21:37:00,
2013-03-07 15:43:00,30.1,24.4,30.22,ESE,119,11.0,16.0,79,0.00,,,0.01,Wunderground v.1.15,2013-03-07 21:43:00,
2013-03-07 15:48:00,30.2,24.8,30.22,ESE,113,11.0,16.0,80,0.00,,,0.01,Wunderground v.1.15,2013-03-07 21:48:00,
2013-03-07 15:53:00,30.3,24.6,30.22,ESE,114,13.0,18.0,79,0.00,,,0.01,Wunderground v.1.15,2013-03-07 21:53:00,
2013-03-07 15:58:00,30.1,24.7,30.22,SE,132,12.0,18.0,80,0.00,,,0.01,Wunderground v.1.15,2013-03-07 21:58:00,
2013-03-07 16:03:00,30.1,25.0,30.22,SE,129,11.0,14.0,81,0.00,,,0.01,Wunderground v.1.15,2013-03-07 22:03:00,
2013-03-07 16:08:00,29.7,24.6,30.22,SE,131,6.0,16.0,81,0.00,,,0.01,Wunderground v.1.15,2013-03-07 22:08:00,
2013-03-07 16:13:00,29.6,24.5,30.22,ESE,115,13.0,15.0,81,0.00,,,0.01,Wunderground v.1.15,2013-03-07 22:13:00,
2013-03-07 16:18:00,29.4,24.3,30.22,ESE,111,11.0,15.0,81,0.00,,,0.01,Wunderground v.1.15,2013-03-07 22:18:00,
2013-03-07 16:23:00,29.6,24.8,30.22,SE,134,8.0,14.0,82,0.00,,,0.01,Wunderground v.1.15,2013-03-07 22:23:00,
2013-03-07 16:29:00,29.8,24.7,30.22,SE,128,13.0,14.0,81,0.00,,,0.01,Wunderground v.1.15,2013-03-07 22:29:00,
2013-03-07 16:34:00,29.7,24.3,30.22,SE,140,10.0,15.0,80,0.00,,,0.01,Wunderground v.1.15,2013-03-07 22:34:00,
2013-03-07 16:39:00,30.0,24.6,30.22,ESE,117,11.0,15.0,80,0.00,,,0.01,Wunderground v.1.15,2013-03-07 22:39:00,
2013-03-07 16:44:00,30.1,24.7,30.22,SE,124,14.0,15.0,80,0.00,,,0.01,Wunderground v.1.15,2013-03-07 22:44:00,
2013-03-07 16:49:00,29.9,24.2,30.22,SE,128,11.0,16.0,79,0.00,,,0.01,Wunderground v.1.15,2013-03-07 22:49:00,
2013-03-07 16:54:00,30.0,24.3,30.21,ESE,118,5.0,13.0,79,0.00,,,0.01,Wunderground v.1.15,2013-03-07 22:54:00,
2013-03-07 16:59:00,29.8,24.7,30.21,SE,132,11.0,15.0,81,0.00,,,0.01,Wunderground v.1.15,2013-03-07 22:59:00,
2013-03-07 17:04:00,29.6,24.2,30.21,ESE,111,12.0,15.0,80,0.00,,,0.01,Wunderground v.1.15,2013-03-07 23:04:00,
2013-03-07 17:09:00,29.3,24.2,30.21,ESE,113,7.0,15.0,81,0.00,,,0.01,Wunderground v.1.15,2013-03-07 23:09:00,
2013-03-07 17:14:00,29.0,24.2,30.21,ESE,119,10.0,15.0,82,0.00,,,0.01,Wunderground v.1.15,2013-03-07 23:14:00,
2013-03-07 17:19:00,28.9,24.1,30.21,ESE,118,5.0,15.0,82,0.00,,,0.01,Wunderground v.1.15,2013-03-07 23:19:00,
2013-03-07 17:24:00,28.9,24.1,30.21,ESE,121,10.0,15.0,82,0.00,,,0.01,Wunderground v.1.15,2013-03-07 23:24:00,
2013-03-07 17:29:00,28.8,24.3,30.21,ESE,113,12.0,15.0,83,0.00,,,0.01,Wunderground v.1.15,2013-03-07 23:29:00,
2013-03-07 17:34:00,28.6,24.1,30.21,ESE,111,7.0,16.0,83,0.00,,,0.01,Wunderground v.1.15,2013-03-07 23:34:00,
2013-03-07 17:39:00,28.5,24.0,30.22,SE,129,11.0,16.0,83,0.00,,,0.01,Wunderground v.1.15,2013-03-07 23:39:00,
2013-03-07 17:44:00,28.4,24.2,30.21,ESE,123,10.0,12.0,84,0.00,,,0.01,Wunderground v.1.15,2013-03-07 23:44:00,
2013-03-07 17:49:00,28.2,24.0,30.21,ESE,122,12.0,14.0,84,0.00,,,0.01,Wunderground v.1.15,2013-03-07 23:49:00,
2013-03-07 17:54:00,28.0,23.8,30.21,SE,128,15.0,16.0,84,0.00,,,0.01,Wunderground v.1.15,2013-03-07 23:54:00,
2013-03-07 17:59:00,27.9,23.7,30.22,SE,138,7.0,16.0,84,0.00,,,0.01,Wunderground v.1.15,2013-03-07 23:59:00,
2013-03-07 18:04:00,27.7,23.5,30.22,SE,129,5.0,12.0,84,0.00,,,0.01,Wunderground v.1.15,2013-03-08 00:04:00,
2013-03-07 18:09:00,27.4,23.2,30.22,SE,125,13.0,15.0,84,0.00,,,0.01,Wunderground v.1.15,2013-03-08 00:09:00,
2013-03-07 18:16:00,27.2,23.0,30.21,SE,126,7.0,13.0,84,0.00,,,0.01,Wunderground v.1.15,2013-03-08 00:16:00,
2013-03-07 18:21:00,27.0,23.1,30.22,SE,136,6.0,13.0,85,0.00,,,0.01,Wunderground v.1.15,2013-03-08 00:21:00,
2013-03-07 18:27:00,26.9,23.0,30.22,SE,130,10.0,12.0,85,0.00,,,0.01,Wunderground v.1.15,2013-03-08 00:27:00,
2013-03-07 18:32:00,26.6,22.7,30.21,SE,126,11.0,13.0,85,0.00,,,0.01,Wunderground v.1.15,2013-03-08 00:32:00,
2013-03-07 18:37:00,26.5,22.9,30.22,SE,138,14.0,16.0,86,0.00,,,0.01,Wunderground v.1.15,2013-03-08 00:37:00,
2013-03-07 18:42:00,26.3,22.7,30.22,SE,139,10.0,10.0,86,0.00,,,0.01,Wunderground v.1.15,2013-03-08 00:42:00,
2013-03-07 18:47:00,26.2,22.6,30.22,SE,134,8.0,13.0,86,0.00,,,0.01,Wunderground v.1.15,2013-03-08 00:47:00,
2013-03-07 18:52:00,26.1,22.5,30.21,SE,138,10.0,11.0,86,0.00,,,0.01,Wunderground v.1.15,2013-03-08 00:52:00,
2013-03-07 18:57:00,25.9,22.3,30.22,SE,138,7.0,13.0,86,0.00,,,0.01,Wunderground v.1.15,2013-03-08 00:57:00,
2013-03-07 19:02:00,25.9,22.3,30.22,SE,133,11.0,14.0,86,0.00,,,0.01,Wunderground v.1.15,2013-03-08 01:02:00,
2013-03-07 19:08:00,25.8,22.2,30.22,SE,136,6.0,14.0,86,0.00,,,0.01,Wunderground v.1.15,2013-03-08 01:08:00,
2013-03-07 19:13:00,25.7,22.1,30.22,SE,134,8.0,12.0,86,0.00,,,0.01,Wunderground v.1.15,2013-03-08 01:13:00,
2013-03-07 19:18:00,25.6,22.0,30.22,SE,140,8.0,15.0,86,0.00,,,0.01,Wunderground v.1.15,2013-03-08 01:18:00,
2013-03-07 19:23:00,25.4,21.8,30.22,SE,129,12.0,13.0,86,0.00,,,0.01,Wunderground v.1.15,2013-03-08 01:23:00,
2013-03-07 19:28:00,25.4,21.8,30.22,SE,133,10.0,14.0,86,0.00,,,0.01,Wunderground v.1.15,2013-03-08 01:28:00,
2013-03-07 19:33:00,25.3,21.7,30.22,SE,137,10.0,13.0,86,0.00,,,0.01,Wunderground v.1.15,2013-03-08 01:33:00,
2013-03-07 19:38:00,25.2,21.9,30.23,SE,136,6.0,13.0,87,0.00,,,0.01,Wunderground v.1.15,2013-03-08 01:38:00,
2013-03-07 19:43:00,25.1,21.8,30.23,SE,134,9.0,10.0,87,0.00,,,0.01,Wunderground v.1.15,2013-03-08 01:43:00,
2013-03-07 19:48:00,25.0,21.7,30.23,SE,144,6.0,12.0,87,0.00,,,0.01,Wunderground v.1.15,2013-03-08 01:48:00,
2013-03-07 19:53:00,24.8,21.5,30.23,SE,141,8.0,11.0,87,0.00,,,0.01,Wunderground v.1.15,2013-03-08 01:53:00,
2013-03-07 19:58:00,24.8,21.5,30.24,SE,142,4.0,12.0,87,0.00,,,0.01,Wunderground v.1.15,2013-03-08 01:58:00,
2013-03-07 20:03:00,24.7,21.4,30.24,SE,141,5.0,8.0,87,0.00,,,0.01,Wunderground v.1.15,2013-03-08 02:03:00,
2013-03-07 20:08:00,24.5,21.2,30.25,SE,140,4.0,9.0,87,0.00,,,0.01,Wunderground v.1.15,2013-03-08 02:08:00,
2013-03-07 20:13:00,24.5,21.2,30.25,SE,142,5.0,11.0,87,0.00,,,0.01,Wunderground v.1.15,2013-03-08 02:13:00,
2013-03-07 20:18:00,24.5,21.2,30.25,SE,139,6.0,11.0,87,0.00,,,0.01,Wunderground v.1.15,2013-03-08 02:18:00,
2013-03-07 20:23:00,24.5,21.2,30.25,SE,139,3.0,8.0,87,0.00,,,0.01,Wunderground v.1.15,2013-03-08 02:23:00,
2013-03-07 20:28:00,24.2,20.9,30.25,SE,139,4.0,8.0,87,0.00,,,0.01,Wunderground v.1.15,2013-03-08 02:28:00,
2013-03-07 20:33:00,24.1,20.8,30.25,SE,139,5.0,8.0,87,0.00,,,0.01,Wunderground v.1.15,2013-03-08 02:33:00,
2013-03-07 20:38:00,24.1,20.8,30.25,SE,138,5.0,8.0,87,0.00,,,0.01,Wunderground v.1.15,2013-03-08 02:38:00,
2013-03-07 20:44:00,24.2,21.2,30.25,SE,140,6.0,6.0,88,0.00,,,0.01,Wunderground v.1.15,2013-03-08 02:44:00,
2013-03-07 20:49:00,24.2,21.2,30.25,SE,140,6.0,9.0,88,0.00,,,0.01,Wunderground v.1.15,2013-03-08 02:49:00,
2013-03-07 20:54:00,24.3,21.3,30.25,SE,146,4.0,9.0,88,0.00,,,0.01,Wunderground v.1.15,2013-03-08 02:54:00,
2013-03-07 20:59:00,24.3,21.3,30.25,SE,142,6.0,10.0,88,0.00,,,0.01,Wunderground v.1.15,2013-03-08 02:59:00,
2013-03-07 21:04:00,24.4,21.4,30.25,SE,141,8.0,12.0,88,0.00,,,0.01,Wunderground v.1.15,2013-03-08 03:04:00,
2013-03-07 21:09:00,24.2,21.2,30.25,SE,144,5.0,12.0,88,0.00,,,0.01,Wunderground v.1.15,2013-03-08 03:09:00,
2013-03-07 21:14:00,24.1,21.1,30.25,SE,145,6.0,13.0,88,0.00,,,0.01,Wunderground v.1.15,2013-03-08 03:14:00,
2013-03-07 21:19:00,24.0,21.0,30.25,SE,146,5.0,13.0,88,0.00,,,0.01,Wunderground v.1.15,2013-03-08 03:19:00,
2013-03-07 21:24:00,23.9,20.9,30.25,SE,146,5.0,8.0,88,0.00,,,0.01,Wunderground v.1.15,2013-03-08 03:24:00,
2013-03-07 21:29:00,23.8,20.8,30.25,SE,145,3.0,8.0,88,0.00,,,0.01,Wunderground v.1.15,2013-03-08 03:29:00,
2013-03-07 21:34:00,23.6,20.6,30.25,SE,145,5.0,7.0,88,0.00,,,0.01,Wunderground v.1.15,2013-03-08 03:34:00,
2013-03-07 21:40:00,23.7,20.7,30.25,SSE,148,6.0,6.0,88,0.00,,,0.01,Wunderground v.1.15,2013-03-08 03:40:00,
2013-03-07 21:45:00,23.6,20.6,30.25,SSE,148,6.0,11.0,88,0.00,,,0.01,Wunderground v.1.15,2013-03-08 03:45:00,
2013-03-07 21:50:00,23.6,20.6,30.25,SSE,148,7.0,7.0,88,0.00,,,0.01,Wunderground v.1.15,2013-03-08 03:50:00,
2013-03-07 21:55:00,23.7,20.7,30.25,SSE,147,5.0,11.0,88,0.00,,,0.01,Wunderground v.1.15,2013-03-08 03:55:00,
2013-03-07 22:00:00,23.7,20.7,30.26,SSE,149,6.0,8.0,88,0.00,,,0.01,Wunderground v.1.15,2013-03-08 04:00:00,
2013-03-07 22:05:00,23.6,20.6,30.26,SSE,150,4.0,10.0,88,0.00,,,0.01,Wunderground v.1.15,2013-03-08 04:05:00,
2013-03-07 22:10:00,23.5,20.5,30.26,SSE,149,6.0,6.0,88,0.00,,,0.01,Wunderground v.1.15,2013-03-08 04:10:00,
2013-03-07 22:15:00,23.4,20.4,30.26,SSE,149,3.0,7.0,88,0.00,,,0.01,Wunderground v.1.15,2013-03-08 04:15:00,
2013-03-07 22:20:00,23.3,20.3,30.26,SSE,150,3.0,4.0,88,0.00,,,0.01,Wunderground v.1.15,2013-03-08 04:20:00,
2013-03-07 22:25:00,23.3,20.3,30.26,SSE,150,3.0,7.0,88,0.00,,,0.01,Wunderground v.1.15,2013-03-08 04:25:00,
2013-03-07 22:30:00,23.3,20.5,30.25,SSE,159,5.0,11.0,89,0.00,,,0.01,Wunderground v.1.15,2013-03-08 04:30:00,
2013-03-07 22:35:00,23.5,20.7,30.26,SSE,161,6.0,11.0,89,0.00,,,0.01,Wunderground v.1.15,2013-03-08 04:35:00,
2013-03-07 22:42:00,23.6,20.8,30.25,SSE,162,5.0,9.0,89,0.00,,,0.01,Wunderground v.1.15,2013-03-08 04:42:00,
2013-03-07 22:47:00,23.6,20.6,30.25,SSE,161,9.0,9.0,88,0.00,,,0.01,Wunderground v.1.15,2013-03-08 04:47:00,
2013-03-07 22:52:00,23.6,20.6,30.25,SSE,161,7.0,8.0,88,0.00,,,0.01,Wunderground v.1.15,2013-03-08 04:52:00,
2013-03-07 22:57:00,23.6,20.6,30.25,SSE,160,11.0,11.0,88,0.00,,,0.01,Wunderground v.1.15,2013-03-08 04:57:00,
2013-03-07 23:00:00,23.6,20.6,30.25,SSE,160,5.0,7.0,88,0.00,,,0.01,Wunderground v.1.15,2013-03-08 05:00:00,
2013-03-07 23:02:00,23.6,20.6,30.25,SSE,159,7.0,10.0,88,0.00,,,0.01,Wunderground v.1.15,2013-03-08 05:02:00,
2013-03-07 23:07:00,23.6,20.8,30.25,SSE,159,9.0,12.0,89,0.00,,,0.01,Wunderground v.1.15,2013-03-08 05:07:00,
2013-03-07 23:12:00,23.6,20.8,30.25,SSE,158,7.0,7.0,89,0.00,,,0.01,Wunderground v.1.15,2013-03-08 05:12:00,
2013-03-07 23:17:00,23.5,20.7,30.26,SSE,158,5.0,9.0,89,0.00,,,0.01,Wunderground v.1.15,2013-03-08 05:17:00,
2013-03-07 23:22:00,23.4,20.6,30.26,SSE,157,5.0,6.0,89,0.00,,,0.01,Wunderground v.1.15,2013-03-08 05:22:00,
2013-03-07 23:27:00,23.4,20.6,30.26,SSE,158,4.0,7.0,89,0.00,,,0.01,Wunderground v.1.15,2013-03-08 05:27:00,
2013-03-07 23:32:00,23.4,20.6,30.26,SSE,157,5.0,6.0,89,0.00,,,0.01,Wunderground v.1.15,2013-03-08 05:32:00,
2013-03-07 23:37:00,23.3,20.5,30.26,SSE,158,3.0,10.0,89,0.00,,,0.01,Wunderground v.1.15,2013-03-08 05:37:00,
2013-03-07 23:42:00,23.3,20.5,30.26,SSE,157,3.0,4.0,89,0.00,,,0.01,Wunderground v.1.15,2013-03-08 05:42:00,
2013-03-07 23:47:00,23.3,20.5,30.26,SSE,157,6.0,7.0,89,0.00,,,0.01,Wunderground v.1.15,2013-03-08 05:47:00,
2013-03-07 23:52:00,23.3,20.5,30.26,SSE,158,6.0,6.0,89,0.00,,,0.01,Wunderground v.1.15,2013-03-08 05:52:00,
2013-03-07 23:57:00,23.2,20.4,30.26,SSE,157,3.0,6.0,89,0.00,,,0.01,Wunderground v.1.15,2013-03-08 05:57:00,